Tracking 25648 objects as of 17-May-2022
HD Live streaming from Space Station
objects crossing your sky now

COSMOS 540

Track COSMOS 540 now!
10-day predictions
COSMOS 540 is classified as:


NORAD ID: 6323
Int'l Code: 1972-104A
Perigee: 763.6 km
Apogee: 790.5 km
Inclination: 74.1 °
Period: 100.2 minutes
Semi major axis: 7148 km
RCS: 2.1717 m2 (large)
Launch date: December 25, 1972
Source: Commonwealth of Independent States (former USSR) (CIS)
Launch site: PLESETSK MISSILE AND SPACE COMPLEX (PKMTR)
aabbcc
Your satellite tracking list
Your tracking list is empty




NASA's NSSDC Master Catalog

Two Line Element Set (TLE):
1  6323U 72104A   22136.50807343  .00000105  00000-0  44408-4 0  9992
2  6323  74.0799 316.8868 0018836 303.4054  56.5297 14.36549855584873
Source of the keplerian elements: AFSPC